Regional Weather Roundup
Issued by NWS

Home | Current Version | Previous Version | Text Only | Print | Product List | Glossary On
Versions: 1 2 3 4 5 6 7 8 9 10 11 12 13 14 15 16 17 18 19 20 21 22 23 24 25 26 27 28 29 30 31 32 33 34 35 36 37 38 39 40 41 42 43 44 45 46 47 48 49 50
000
ASUS43 KDTX 230410
RWRMI
MICHIGAN HOURLY REGIONAL WEATHER ROUNDUP
NATIONAL WEATHER SERVICE DETROIT/PONTIAC MI
ISSUED BY NATIONAL WEATHER SERVICE GRAND RAPIDS MI
1200 AM EDT SUN JUL 23 2017

NOTE: "FAIR" INDICATES FEW OR NO CLOUDS BELOW 12,000 FEET WITH NO
SIGNIFICANT WEATHER AND/OR OBSTRUCTION TO VISIBILITY.

MIZ047>049-052>055-059>063-066>070-074>076-081>083-230500-
SOUTHEAST LOWER MICHIGAN

CITY           SKY/WX    TMP DP  RH WIND       PRES   REMARKS
ADRIAN         CLEAR     72  67  84 NW5       29.82S
ALMA           CLOUDY    68  66  94 NE7       29.83S
ANN ARBOR      MOCLDY    73  69  87 NW6       29.80F
BAD AXE        CLOUDY    66  65  96 SE3       29.82S FOG
DETROIT CITY   MOCLDY    76  70  82 N3        29.78F
DETROIT        CLOUDY    75  70  84 NW6       29.80S
FLINT          CLOUDY    70  67  90 NW5       29.80F
GROSSE ILE     MOCLDY    76  70  81 N3        29.77F
HILLSDALE      MOCLDY    70  66  88 W8        29.83S
HOWELL         CLOUDY    70  67  91 NW5       29.81F

CITY           SKY/WX    TMP DP  RH WIND       PRES   REMARKS
JACKSON        CLOUDY    73  69  87 W5        29.82F
LANSING        MOCLDY    68  65  90 N3        29.83S
MASON          CLEAR     69  67  94 N6        29.82S
MONROE         CLOUDY    74  71  89 NW3       29.78S
MT. CLEMENS    MOCLDY    73  73 100 CALM      29.77
PONTIAC        PTCLDY    71  69  93 NW7       29.79F
PORT HOPE        N/A     70  66  87 E13       29.80F
PORT HURON     CLOUDY    70  70 100 CALM      29.78F FOG
TRI CITIES     CLOUDY    69  68  96 N6        29.83S
YPSILANTI      CLOUDY    75  70  84 NW8       29.80F
$$
MIZ043>046-050>051-056>058-064>065-071>073-077>080-230500-
SOUTHWEST LOWER MICHIGAN

CITY           SKY/WX    TMP DP  RH WIND       PRES   REMARKS
BATTLE CREEK   CLEAR     70  69  97 W5        29.83F
BENTON HARBOR  FOG       70  67  90 CALM      29.81F VSB 3/4
BIG RAPIDS     CLOUDY    70  66  87 S6        29.83S
COLDWATER      CLEAR     70  70 100 CALM      29.83S
HOLLAND        FOG       68  67  96 SW5       29.83F VSB 1/2
GRAND RAPIDS   CLOUDY    70  69  97 W3        29.82F FOG
KALAMAZOO      CLEAR     71  66  84 NW3       29.83F
MARSHALL       CLOUDY    71  70  98 W3        29.82F
MOUNT PLEASANT CLEAR     68  64  88 E6        29.82F
MUSKEGON       MOCLDY    67  66  97 CALM      29.82S FOG
STURGIS        CLEAR     68  67  98 NE3       29.82F
$$
MIZ016>042-230500-
NORTHERN LOWER MICHIGAN

CITY           SKY/WX    TMP DP  RH WIND       PRES   REMARKS
ALPENA         CLOUDY    67  66  97 CALM      29.84F
BEAVER ISLAND  CLOUDY    68  66  93 E5        29.79F
BELLAIRE       MOCLDY    67  64  87 CALM      29.81S
CADILLAC       MOCLDY    70  65  86 SE5       29.84R
CHARLEVOIX     PTCLDY    71  65  81 SE7       29.83S
GAYLORD        MOCLDY    67  62  84 SE8       29.85S
HOUGHTON LAKE  CLOUDY    66  64  93 SE7       29.84F
MANISTEE       PTCLDY    64  63  96 CALM      29.80S
OSCODA         CLOUDY    69  65  90 NW3       29.83R
PELLSTON       MOCLDY    69  65  86 SE6       29.82F
TRAVERSE CITY  MOCLDY    70  64  81 SW3       29.79S
LUDINGTON      PTCLDY    62  62 100 CALM      29.80S FOG
$$
MIZ007>008-015-230500-
EASTERN UPPER MICHIGAN

CITY           SKY/WX    TMP DP  RH WIND       PRES   REMARKS
KINROSS        CLOUDY    66  63  90 E8        29.83F
MACKINAC ISLAN CLOUDY    67  67 100 SE6       29.82S
NEWBERRY       PTCLDY    63  62  97 E6        29.81S
S. S. MARIE    CLOUDY    67  58  72 E6        29.83F
$$
MIZ004>006-011>014-085-230500-
CENTRAL UPPER MICHIGAN

CITY           SKY/WX    TMP DP  RH WIND       PRES   REMARKS
MANISTIQUE     CLOUDY    67  64  89 E7        29.79S
ESCANABA       PTCLDY    67  66  97 S5        29.78F
MENOMINEE      CLOUDY    71  66  84 E8        29.80R
SAWYER-GWINN   MOCLDY    65  64  93 S7        29.80S
$$
MIZ001>003-009>011-084-230500-
WESTERN UPPER MICHIGAN

CITY           SKY/WX    TMP DP  RH WIND       PRES   REMARKS
IRON MOUNTAIN  CLEAR     64  62  93 CALM      29.79S
HOUGHTON       CLOUDY    59  54  83 N5        29.80F
COPPER HARBOR    N/A     52  49  89 NE6       29.83R
IRONWOOD       CLOUDY    59  58  96 CALM      29.85R
$$

ABBREVIATIONS USED IN REMARKS
   TC - TEMPERATURE IN CELSIUS
  WCI - WIND CHILL INDEX
   HX - HEAT INDEX
  VSB - VISIBILITY




USA.gov is the U.S. government's official web portal to all federal, state and local government web resources and services.